Wind_Speed
28 27 28 28 29 30 31 30 30 30 30 30 29 28 28 27 27 26 26 25 24 24 24 24 25 25 25 26 25 25 25 26 26 26 26 26 26 26 26 26 27 27 27 27 27 27 27 27 28 28 28 28 28 28 28 29 29 29 29 28 27 27 26 26 26 26 26 26 27 27 27 27 27 27 27 27 27 27 27 27 27 27 26 26 25 25
29 29 29 30 30 31 31 31 31 31 31 30 29 29 28 27 27 26 25 25 24 23 23 23 24 24 24 24 25 25 25 25 26 26 26 26 26 27 27 27 27 27 28 28 28 28 28 28 29 29 29 29 29 29 29 29 29 29 28 28 27 27 27 27 27 27 27 27 28 28 28 28 27 27 27 27 27 27 27 27 27 27 27 27 27 26
30 31 32 32 32 32 32 32 32 31 31 30 29 29 28 28 27 26 25 24 24 23 23 23 23 23 24 24 25 25 25 25 26 26 26 26 26 26 26 26 26 26 27 27 27 28 28 28 29 29 29 29 29 28 28 27 27 26 25 25 24 25 25 26 26 27 27 28 28 28 28 28 27 27 27 27 27 27 27 27 27 27 27 27 27 27
29 31 33 33 33 33 33 33 32 32 31 30 30 29 29 28 27 26 25 24 24 23 23 23 24 24 24 25 25 26 26 26 26 26 26 26 26 26 25 25 25 25 25 25 26 26 27 27 28 28 28 28 27 27 26 25 24 23 23 22 22 23 24 24 25 26 26 26 27 27 27 27 27 26 26 26 26 26 26 26 26 26 26 26 26 26
27 30 32 33 33 33 33 33 33 32 31 31 30 29 29 28 27 26 25 25 24 24 24 24 24 25 25 26 26 27 27 27 27 27 26 26 26 25 25 24 24 24 24 25 25 25 26 26 26 27 26 26 26 25 25 24 23 22 22 22 22 22 23 23 23 24 24 25 25 25 25 25 25 25 25 25 25 25 25 25 25 25 25 25 25 25
26 28 31 32 32 32 33 32 32 31 31 30 30 29 28 27 26 26 25 24 24 24 24 25 25 26 26 26 27 27 27 27 27 27 27 26 26 25 25 25 25 25 25 25 25 25 26 26 26 26 26 25 25 24 24 23 22 22 22 22 22 22 22 22 22 23 23 23 23 23 24 24 24 24 24 24 24 24 24 24 24 24 24 24 24 24
28 29 30 31 31 31 31 31 31 30 29 29 28 28 27 27 26 25 25 25 24 25 25 25 26 27 27 27 28 28 28 28 28 27 27 27 26 26 25 25 25 25 25 25 25 25 25 25 25 25 25 25 24 24 23 23 22 22 22 22 22 22 22 22 22 22 22 22 22 22 23 23 23 23 23 23 23 23 23 23 23 23 23 23 23 23
29 30 31 30 30 30 30 29 29 29 28 27 26 26 26 26 26 25 25 25 25 25 26 26 27 27 27 28 28 28 28 28 28 27 27 27 26 26 26 26 25 25 25 25 25 25 25 25 25 25 24 24 24 23 23 23 23 22 22 22 22 22 22 22 22 22 22 22 22 22 22 22 23 23 23 23 23 23 23 23 23 23 23 23 23 23
30 30 30 29 28 28 28 29 29 28 26 25 25 24 24 24 25 26 26 26 26 26 26 26 27 27 28 28 28 28 28 28 27 27 27 27 26 26 26 26 26 25 25 25 25 24 24 24 24 24 24 24 23 23 23 23 23 23 22 22 22 22 22 22 22 22 22 22 22 23 23 23 23 23 23 23 23 23 23 23 23 23 23 23 23 23
30 30 30 29 28 28 28 28 28 28 26 25 25 25 24 24 24 25 26 26 27 27 27 27 27 27 28 28 28 28 27 27 27 27 26 26 26 26 26 26 25 25 25 25 24 24 24 24 24 23 23 23 23 23 23 23 23 23 23 23 23 23 23 23 23 23 23 23 23 23 23 23 23 23 24 24 24 23 23 23 23 23 23 23 23 23
29 29 29 29 29 28 28 29 29 28 27 25 25 26 26 25 25 25 25 26 27 28 28 28 27 27 28 28 28 28 27 27 27 27 26 26 25 25 25 25 25 25 25 24 24 24 24 23 23 23 23 23 23 23 23 23 23 23 24 24 24 24 24 24 24 24 24 24 24 24 24 24 24 24 24 24 24 24 24 24 24 24 23 23 23 23
30 29 29 29 29 29 28 29 29 28 27 26 26 26 26 26 26 25 24 24 26 28 29 29 28 28 28 28 28 28 27 26 26 26 26 25 25 25 25 25 25 24 24 24 23 23 23 23 23 23 23 23 24 24 24 24 24 24 24 24 24 24 24 24 24 24 24 24 24 24 24 24 24 24 24 24 24 24 24 24 24 24 23 23 23 23
31 30 30 29 29 29 29 28 28 28 27 27 26 26 27 27 26 25 24 24 26 28 29 29 29 29 29 29 28 28 27 26 26 26 25 25 25 25 24 24 24 24 24 23 23 23 23 23 23 23 23 24 24 24 24 24 24 24 24 24 24 24 24 24 24 24 24 24 24 24 23 23 23 23 23 23 23 23 23 23 23 23 23 23 23 23
32 31 30 30 29 29 29 28 27 27 27 28 28 28 29 28 27 26 25 25 27 28 29 28 28 29 29 28 27 26 26 26 25 25 25 25 24 24 23 23 23 23 23 23 23 23 23 23 23 23 24 24 24 24 24 24 24 24 24 24 24 24 24 24 24 24 23 23 23 23 23 23 23 23 23 23 23 23 23 23 23 23 23 23 23 23
31 31 31 31 30 30 30 29 28 28 28 29 29 29 28 28 27 26 26 26 27 28 28 27 27 28 28 27 26 25 24 24 24 24 24 24 24 23 22 22 23 23 23 22 23 23 23 23 23 23 23 23 23 23 23 23 23 23 23 23 23 23 23 23 23 23 23 23 23 23 23 23 23 23 23 23 23 23 23 23 23 23 23 23 23 23
30 31 31 32 31 31 31 31 30 29 30 31 30 28 27 26 26 26 26 26 26 27 26 25 24 25 26 26 25 23 23 23 23 23 23 23 23 23 21 21 22 22 23 22 22 23 23 23 23 23 23 23 22 22 22 22 22 22 22 22 22 22 22 23 23 23 23 23 23 23 23 23 23 23 23 23 23 23 24 24 24 24 24 24 24 24
29 30 31 32 31 31 32 32 32 31 32 31 30 28 26 26 26 26 25 25 25 25 24 24 22 21 20 23 24 23 21 21 21 21 22 23 23 22 21 20 21 22 23 22 22 22 22 22 22 22 22 22 22 22 22 22 22 22 22 22 22 22 22 22 22 22 22 22 22 23 23 23 23 23 23 23 24 24 24 24 24 24 24 24 24 24
29 30 30 31 31 31 32 32 32 32 32 31 29 27 26 25 25 24 24 24 24 23 23 23 23 21 18 17 21 24 21 20 20 21 21 22 23 22 21 20 20 21 22 22 22 22 22 22 22 22 22 22 21 21 21 21 21 21 21 21 21 21 22 22 22 22 22 22 22 22 23 23 23 23 23 23 24 24 24 24 24 24 24 24 24 24
30 31 31 30 30 31 32 32 32 32 31 29 27 25 24 24 24 23 23 23 23 23 23 23 23 23 21 18 21 24 21 20 20 21 22 22 22 22 21 20 20 21 21 21 21 21 21 21 22 22 21 21 21 20 20 20 20 20 20 21 21 21 21 21 21 21 21 22 22 22 22 22 23 23 23 23 23 23 24 24 24 24 24 24 24 25
31 32 31 31 31 31 31 31 31 30 28 27 25 24 23 23 23 23 23 23 22 22 22 22 22 23 22 23 24 24 22 20 21 21 22 22 22 22 20 19 19 20 21 21 21 21 20 21 21 21 21 20 20 20 20 20 20 20 20 20 20 20 20 20 21 21 21 21 21 21 22 22 22 22 23 23 23 23 23 24 24 24 24 24 25 25
31 32 32 31 30 30 30 30 29 28 26 25 23 23 23 23 23 23 23 22 22 22 22 22 22 23 23 23 23 23 21 20 20 21 22 22 22 21 20 19 19 19 20 20 20 20 20 20 20 20 20 20 19 19 19 19 19 19 19 19 19 19 19 20 20 20 20 20 21 21 21 21 22 22 22 23 23 23 23 24 24 24 24 25 25 25
30 31 31 30 30 30 29 29 28 26 24 23 22 22 23 23 23 22 22 22 22 22 22 22 22 22 22 22 22 21 20 20 20 21 21 21 22 21 20 19 18 19 19 20 20 19 19 19 19 20 20 19 19 18 18 18 18 18 18 18 18 18 18 18 19 19 19 20 20 21 21 21 22 22 22 23 23 23 24 24 24 24 24 25 25 25
30 30 30 30 29 28 28 27 26 25 23 22 22 22 22 22 22 22 22 22 21 21 22 22 22 21 21 21 21 21 20 20 20 20 20 20 21 21 21 19 18 18 19 20 19 18 18 18 19 19 19 19 18 18 18 18 17 17 17 17 17 17 17 17 18 19 19 20 20 21 21 22 22 22 23 23 23 23 23 24 24 24 24 24 24 24
29 29 29 29 28 26 26 26 25 23 22 22 22 22 22 22 22 22 22 22 22 21 21 21 21 21 21 21 21 21 20 20 20 19 19 19 20 21 20 19 18 18 19 19 19 18 18 18 18 19 19 18 18 17 17 17 16 16 15 15 15 15 16 17 18 19 20 20 21 21 21 22 22 22 22 22 23 23 23 23 24 24 24 24 24 24
28 27 27 26 25 25 24 24 24 23 23 22 22 22 23 23 23 23 22 22 22 22 21 21 21 21 22 22 21 21 21 20 19 19 19 19 20 20 20 19 18 18 19 19 19 18 18 18 18 18 18 18 17 17 16 15 14 14 13 13 14 15 17 18 19 19 20 21 21 21 21 21 22 22 22 22 22 23 23 23 23 23 24 24 24 24
26 26 25 25 24 24 24 24 24 23 23 23 23 23 23 23 23 23 23 23 22 21 21 21 21 22 23 22 22 21 21 20 19 18 18 19 19 20 20 19 19 18 19 19 19 18 18 17 17 17 17 17 16 16 15 13 12 12 12 13 15 16 17 18 19 19 20 20 20 21 21 21 21 22 22 22 23 23 23 23 24 24 24 24 24 24
26 25 24 24 24 24 24 24 24 24 24 24 24 24 24 24 23 23 23 23 22 21 21 21 22 22 23 22 22 21 21 20 19 18 18 18 19 19 20 19 19 18 19 19 19 18 18 17 17 17 17 16 15 14 13 12 11 11 12 14 15 16 17 18 18 18 19 19 19 20 20 21 21 22 22 23 23 23 23 24 24 24 24 24 24 24
25 25 24 24 24 25 25 25 25 25 25 25 25 25 25 24 23 23 23 23 22 21 21 21 22 22 22 22 21 21 20 19 19 18 18 17 18 19 19 19 19 18 19 19 19 18 18 17 17 16 15 15 14 13 11 11 11 12 13 15 16 16 16 17 17 17 18 18 19 20 20 21 21 22 22 23 23 23 24 24 24 24 25 25 25 25
26 25 25 25 25 25 25 25 25 25 25 25 25 25 24 24 23 23 23 23 22 21 21 22 22 22 22 21 21 20 20 19 18 17 17 16 16 18 19 18 18 18 19 19 19 19 18 18 16 15 14 13 12 12 12 12 13 14 15 15 15 15 15 16 16 17 17 18 19 19 20 20 21 21 22 22 23 23 23 24 24 24 25 25 25 25
27 26 26 25 25 24 25 25 25 25 25 25 25 24 24 23 23 23 23 22 21 21 21 22 22 22 21 20 20 20 19 19 17 16 15 14 15 17 18 18 18 18 18 18 18 17 17 18 17 15 13 13 13 13 13 14 15 15 15 15 14 14 14 15 16 16 17 18 18 19 20 20 21 21 21 22 22 22 23 23 24 24 25 25 25 25
28 27 26 25 25 24 24 25 25 25 25 25 24 24 23 23 22 22 22 21 21 21 21 21 21 21 20 19 18 18 17 18 17 15 14 14 15 17 18 17 17 18 17 17 16 15 14 15 16 16 15 14 15 16 16 16 16 16 15 14 14 13 14 14 15 16 17 17 18 19 19 20 20 21 21 22 22 22 23 23 24 24 25 25 26 26
29 28 27 26 25 24 25 25 25 25 25 25 24 23 23 22 22 22 21 21 20 20 20 20 20 20 19 18 17 17 17 18 17 16 15 15 16 17 17 17 16 17 17 16 15 13 11 13 16 18 17 17 18 19 19 18 18 17 16 15 15 14 14 14 15 16 17 17 18 18 19 19 20 21 21 21 22 22 23 23 24 24 25 25 26 26
30 29 27 26 25 25 25 25 25 25 25 25 24 24 23 22 22 21 21 21 20 20 19 19 19 19 19 18 18 17 17 18 18 17 15 15 15 16 16 16 16 16 17 16 16 15 14 16 18 19 19 19 19 20 20 20 19 19 18 17 17 16 16 16 16 16 16 17 17 18 18 19 19 20 21 21 22 22 23 23 23 24 25 25 26 26
30 29 27 26 25 25 26 26 26 25 25 24 24 23 23 22 22 22 21 20 20 19 19 18 18 18 18 18 18 17 17 17 17 17 15 15 15 16 16 16 16 16 16 16 16 17 17 18 19 20 21 20 20 20 20 21 21 20 20 20 19 19 19 18 17 17 17 17 17 18 18 19 19 19 20 20 21 22 22 22 23 24 24 25 25 26
29 28 27 26 26 26 26 25 25 25 25 24 24 23 23 22 22 22 21 20 20 19 18 18 17 17 17 18 18 18 16 16 16 16 16 15 15 16 16 16 16 16 16 16 17 18 18 19 20 21 22 22 22 21 20 21 21 22 22 22 22 21 21 21 20 20 19 19 19 19 19 19 19 19 20 20 21 21 21 22 22 23 23 24 25 26
29 28 28 27 27 26 26 25 25 25 25 24 24 23 22 22 22 21 21 20 20 19 18 18 18 17 17 17 17 17 17 16 16 17 16 16 16 16 16 16 17 17 16 17 18 19 20 21 21 21 22 22 22 21 20 20 21 22 23 23 23 23 23 23 23 22 22 21 21 20 20 20 20 20 21 21 21 21 21 22 22 22 23 23 24 25
29 29 28 28 28 27 26 26 25 25 25 24 24 23 22 22 21 21 21 20 20 19 19 19 18 18 18 17 17 17 17 17 17 17 17 17 17 16 16 17 17 17 17 17 18 20 20 21 22 22 22 22 21 20 20 21 22 23 23 24 24 24 24 24 24 23 23 23 22 21 21 21 21 21 22 22 22 22 22 22 22 22 23 23 23 24
30 29 29 29 28 27 27 26 26 25 25 24 24 23 22 21 21 21 20 20 20 20 20 20 19 19 19 18 18 17 17 17 17 17 17 17 17 16 17 17 17 17 17 18 18 19 20 21 22 22 22 22 21 21 22 23 24 24 24 24 24 24 24 24 24 23 23 23 22 21 21 21 21 22 22 23 23 23 24 24 24 24 24 24 25 25
31 30 29 29 28 28 27 26 26 25 25 24 23 22 21 21 21 21 21 21 20 20 20 20 20 20 19 19 19 18 18 18 18 17 17 17 17 17 17 17 17 17 18 18 18 19 20 21 21 22 22 23 23 23 23 23 24 25 25 25 24 24 23 23 23 23 22 22 21 21 21 21 21 22 22 23 23 24 25 25 26 26 26 26 26 27
31 30 30 29 28 28 27 26 26 25 24 23 22 21 21 21 21 21 21 21 21 21 21 21 20 20 20 19 19 19 19 19 18 18 17 17 17 17 17 17 17 17 17 18 18 19 19 20 21 22 23 24 24 25 25 24 24 25 25 25 25 24 23 23 22 22 21 21 21 21 21 22 22 22 22 23 24 24 25 26 26 26 26 27 27 27
31 30 29 29 28 27 26 26 25 24 23 21 21 21 22 22 22 21 21 21 21 21 21 20 20 20 20 19 19 19 19 18 18 18 17 17 17 17 17 17 17 17 17 18 18 19 20 20 21 22 23 23 24 25 26 25 25 25 24 25 25 25 24 23 22 22 21 22 22 22 23 23 23 23 24 24 24 25 25 26 26 26 26 26 26 27
31 30 29 28 27 27 26 26 25 23 22 21 21 21 22 22 21 21 20 20 20 20 20 20 19 19 19 19 19 18 18 17 17 17 16 16 16 16 16 16 17 17 17 18 19 19 20 20 21 22 22 23 24 25 26 25 25 24 24 24 25 25 25 23 22 21 22 23 23 24 24 25 25 25 26 26 26 26 26 26 26 26 26 26 26 26
30 28 27 27 26 26 26 25 23 22 21 21 21 22 22 21 20 20 19 19 19 19 19 18 17 17 17 17 17 17 17 16 16 15 15 15 15 15 16 16 16 17 17 18 19 20 21 21 22 22 22 22 23 24 26 26 25 24 24 23 23 24 24 23 22 21 22 23 23 24 25 25 26 27 27 27 27 27 27 27 26 26 26 26 26 26
28 26 26 25 25 25 24 23 22 21 21 21 21 21 21 20 19 18 18 17 17 17 16 16 16 17 17 17 16 15 15 15 15 15 15 15 16 16 16 16 17 17 18 19 20 21 22 22 22 21 21 21 22 23 24 25 25 24 23 22 22 21 22 23 23 22 23 23 24 24 25 25 26 27 28 28 28 28 28 27 27 26 26 26 26 26
26 24 24 24 24 23 23 22 21 21 21 20 20 20 20 19 18 17 17 16 16 15 15 16 16 16 17 17 16 14 13 14 14 15 15 16 16 16 16 17 17 18 19 20 21 21 21 22 22 21 21 21 22 22 23 24 24 23 23 22 21 21 22 22 22 23 23 24 24 25 25 25 26 28 28 29 29 28 28 27 27 26 26 26 26 26
24 23 23 23 22 22 21 21 20 20 20 20 19 19 19 18 18 18 18 17 16 16 16 17 17 17 17 16 14 13 12 12 13 14 15 15 16 17 17 18 18 18 19 20 20 20 20 20 20 21 21 21 22 22 22 22 22 22 21 21 21 21 21 22 22 23 23 24 24 25 25 25 26 27 29 29 29 28 27 27 27 26 26 26 26 25
24 23 22 22 21 21 20 20 20 20 19 19 19 19 19 19 19 19 18 18 17 17 17 17 17 17 16 15 13 12 11 11 11 12 13 14 16 17 18 18 19 19 19 19 19 18 18 17 18 18 19 20 21 21 21 20 20 20 20 20 20 21 22 23 23 23 23 24 24 25 25 26 26 28 29 29 29 28 27 27 26 26 26 25 25 25
23 22 21 21 20 20 20 20 20 19 19 19 19 19 19 19 19 18 18 17 17 17 17 17 16 15 14 14 13 12 12 12 12 13 14 15 16 18 18 19 19 18 18 17 17 17 16 16 16 16 16 18 19 20 19 18 18 18 19 19 20 21 23 23 23 23 23 24 25 25 25 26 26 27 28 28 29 29 28 27 26 26 25 25 25 25
22 21 21 20 20 20 20 20 19 18 18 18 18 18 18 18 17 17 16 16 16 16 16 15 14 13 13 13 13 13 13 13 14 15 16 16 17 18 18 18 18 17 16 16 15 15 15 16 16 15 15 15 16 17 18 17 17 17 18 19 20 21 22 23 23 23 23 24 25 26 26 25 25 25 26 27 28 29 28 28 27 26 25 25 25 25
21 21 20 20 20 20 20 19 18 18 17 17 17 17 17 16 16 16 17 17 17 17 15 14 13 13 13 13 13 13 14 14 15 16 16 17 17 18 18 17 17 16 15 14 14 14 15 16 16 15 14 13 13 14 15 16 17 18 19 20 20 21 22 23 23 23 24 24 25 25 25 25 25 25 25 26 27 28 29 28 28 27 26 25 25 26
21 21 21 21 20 20 19 19 18 18 17 17 17 16 16 16 16 17 17 18 17 16 14 13 13 13 14 14 14 14 15 15 16 16 17 17 17 17 17 16 15 14 13 13 13 13 14 15 15 15 15 13 12 12 13 15 17 18 19 20 20 21 22 23 23 24 24 24 24 24 25 25 25 25 24 24 25 27 29 30 29 28 27 26 26 26
Wind_Direction
259 259 260 261 262 264 264 266 266 267 268 269 269 270 270 270 270 270 270 270 270 270 271 271 272 274 275 275 275 274 274 274 274 274 273 272 272 272 271 271 272 272 272 273 273 274 274 274 275 276 277 278 279 280 280 280 280 279 278 277 276 276 277 277 278 278 277 277 277 277 277 277 278 279 279 279 279 280 280 280 280 280 280 280 280 280
258 257 257 258 260 262 264 265 266 267 268 269 270 270 270 270 270 270 270 270 270 270 270 270 271 272 273 274 275 275 275 275 276 276 276 275 274 273 272 271 271 271 272 272 273 274 274 275 276 276 278 279 279 280 280 280 280 280 279 278 277 276 276 277 278 279 279 279 280 280 280 280 281 281 281 281 281 281 281 282 282 282 282 282 281 281
259 258 257 257 258 260 262 264 266 267 268 269 270 270 270 270 270 271 271 271 271 270 270 271 272 272 273 273 274 274 275 275 276 277 278 278 278 277 276 275 274 274 274 274 275 275 276 277 278 278 279 280 280 280 281 281 282 282 282 281 280 278 277 277 277 277 278 278 279 279 280 280 281 281 281 281 281 281 281 281 282 282 282 282 282 281
261 260 259 259 259 260 261 263 264 266 267 267 268 268 269 269 270 270 270 270 270 270 271 271 272 272 273 273 273 274 274 275 276 277 278 279 280 281 280 280 280 279 278 278 278 278 277 278 278 279 279 280 280 280 281 282 282 283 283 282 281 279 278 277 276 276 277 277 278 278 279 279 280 280 280 281 281 281 281 281 281 281 281 281 281 281
263 262 261 261 261 261 261 262 263 263 264 265 266 266 267 267 268 268 267 268 268 269 270 270 271 272 272 272 273 273 274 275 275 276 277 279 280 280 281 281 281 280 280 279 279 278 278 278 278 279 279 280 280 281 281 282 282 282 282 281 280 279 278 277 277 277 277 277 277 278 278 279 279 280 280 281 281 281 281 281 281 281 281 281 280 280
262 262 263 263 262 262 262 262 262 262 262 263 263 264 265 265 265 265 265 266 267 268 269 269 270 271 271 272 272 273 274 275 275 276 277 278 278 279 279 279 279 279 279 279 279 279 279 279 279 280 280 281 282 283 283 283 283 283 283 282 281 280 280 279 279 279 278 278 278 279 279 279 280 280 280 281 281 281 281 281 280 280 280 280 279 279
262 262 262 263 264 263 263 262 261 260 260 261 262 262 263 263 263 263 264 264 265 266 267 268 269 270 271 271 272 273 274 275 276 276 277 278 278 278 278 279 279 279 279 279 279 280 280 280 281 282 283 284 285 285 286 286 286 286 286 285 285 284 284 283 283 283 282 282 282 282 281 281 281 281 281 280 280 280 280 279 279 279 279 278 278 277
263 262 263 263 264 263 263 261 260 259 259 260 261 261 262 262 262 262 263 263 264 265 267 268 269 270 271 272 273 273 274 275 276 276 277 277 278 278 279 279 279 279 279 280 280 280 281 281 282 283 284 286 287 287 288 289 289 289 289 289 288 288 287 287 287 286 286 285 285 284 284 284 283 282 282 281 280 280 279 279 279 278 278 277 277 276
264 264 264 263 262 262 261 260 259 258 258 259 259 260 261 262 262 262 263 263 264 265 267 268 270 271 272 273 273 274 275 275 276 276 277 277 278 278 279 279 279 279 280 280 280 281 281 282 283 284 285 286 287 288 289 290 290 290 291 290 290 290 290 289 289 288 288 287 287 286 285 285 284 283 283 282 282 281 280 280 279 278 278 278 277 277
265 265 265 263 260 258 257 258 258 257 257 256 256 257 258 260 262 264 265 265 265 265 266 268 270 271 272 273 274 274 275 275 276 276 276 277 278 278 279 279 279 280 280 281 281 282 283 283 284 285 286 287 288 288 289 290 291 291 291 291 292 292 291 291 290 290 289 288 288 287 286 286 285 284 284 284 283 283 282 282 281 280 280 279 279 279
266 265 264 262 259 256 254 254 255 255 254 254 254 255 256 258 260 263 266 268 268 267 267 268 269 270 272 273 274 274 275 275 276 276 276 276 277 278 278 279 279 280 281 281 282 283 283 284 285 286 287 287 288 289 289 290 291 291 292 292 292 292 292 291 291 290 290 289 289 288 287 287 286 286 285 285 285 285 284 284 283 283 282 282 282 281
266 265 263 261 258 255 252 251 252 253 252 253 254 257 258 259 259 261 263 266 268 269 269 269 270 270 271 272 273 274 274 275 276 276 276 277 277 277 278 278 279 280 280 281 282 282 283 284 285 286 287 287 288 288 289 290 291 291 291 291 291 291 291 291 291 290 290 290 289 289 288 288 287 287 287 287 287 286 286 286 286 286 285 285 284 284
263 264 263 261 258 254 250 248 249 250 252 253 255 257 259 260 261 261 261 262 264 267 269 271 272 272 272 272 273 274 274 275 276 276 277 277 277 278 278 279 279 280 281 281 282 282 283 284 285 285 286 287 287 288 288 289 289 290 290 290 289 289 289 289 289 289 289 289 289 289 289 288 288 288 288 288 288 288 288 288 288 288 287 287 286 286
263 263 264 263 260 256 251 248 247 249 252 255 257 258 260 261 262 262 262 263 264 266 269 270 271 272 272 272 272 272 273 274 275 276 277 277 277 278 279 280 280 281 281 282 283 283 283 284 284 285 285 285 286 286 287 287 287 287 287 287 287 287 287 287 288 288 288 288 288 288 289 289 289 289 290 290 290 290 290 290 289 289 289 288 287 287
262 263 264 264 263 259 255 252 251 253 255 258 259 259 260 261 262 263 263 264 266 267 269 270 271 272 271 270 270 270 271 272 273 275 276 276 276 276 278 279 280 280 281 281 282 282 283 283 283 283 283 283 284 284 285 285 285 285 285 285 285 285 286 286 286 287 287 287 288 288 289 289 290 290 290 290 291 291 291 290 290 290 289 288 288 287
261 261 262 263 262 260 258 256 256 257 259 260 260 259 259 260 262 264 265 266 267 269 269 269 271 272 273 271 269 268 269 270 271 272 273 275 275 275 276 277 278 279 279 279 280 280 281 281 281 281 281 281 282 282 283 283 283 283 283 284 284 284 285 285 286 286 287 288 288 289 289 290 290 290 291 291 291 291 291 291 291 290 290 289 289 288
262 261 260 261 261 260 259 260 261 261 261 261 260 259 259 261 263 265 266 267 268 268 268 267 266 267 272 275 273 269 268 269 270 271 272 274 274 274 274 275 275 277 277 278 278 278 279 279 279 279 280 280 281 281 282 282 282 283 283 283 284 284 285 285 286 287 287 288 288 289 289 290 290 290 291 291 291 291 291 291 291 291 291 290 290 289
263 262 262 262 261 260 260 262 263 263 262 260 260 259 260 262 264 266 267 266 266 266 266 266 264 262 261 271 275 273 270 271 271 271 272 273 274 274 274 274 274 275 276 277 277 277 277 278 278 279 279 280 281 281 281 281 282 282 283 283 284 284 285 286 286 287 288 288 289 289 290 290 290 291 291 291 291 291 291 291 291 291 291 291 290 290
262 261 262 263 262 261 262 263 263 262 261 259 259 259 261 262 264 265 265 265 265 264 265 265 265 263 261 261 267 271 273 273 272 272 272 272 273 274 275 274 274 274 275 275 276 277 277 277 278 278 279 280 280 281 281 281 281 282 282 283 284 285 286 286 287 288 288 288 289 289 289 290 290 290 290 290 291 291 291 291 291 290 290 290 290 290
261 260 260 260 261 261 262 262 262 261 259 258 257 258 259 261 263 263 263 264 264 263 264 264 264 264 263 262 264 268 272 273 272 272 272 272 272 273 274 274 274 274 275 275 275 276 276 277 277 278 279 279 280 280 281 281 282 282 283 284 285 285 286 287 287 288 288 288 288 289 289 289 289 289 289 290 290 290 290 290 290 290 289 289 289 289
260 259 257 257 257 258 258 260 260 259 257 256 255 256 258 260 261 262 262 263 263 263 263 262 262 263 264 265 266 269 271 271 271 272 272 273 273 273 273 274 274 274 274 274 275 275 276 276 277 278 279 279 280 281 281 282 282 283 284 284 285 286 286 286 287 287 287 287 288 288 288 288 289 289 289 289 289 289 289 290 289 289 289 289 289 288
260 258 257 255 254 254 255 256 257 256 254 253 253 255 257 259 260 261 262 262 262 262 261 261 261 262 264 266 268 269 270 270 271 271 273 274 276 275 273 274 274 274 274 274 274 274 275 276 277 278 279 280 281 281 282 282 283 283 284 284 284 285 285 285 286 286 287 287 288 288 288 289 289 289 289 290 290 290 290 290 289 289 289 289 289 288
259 257 255 254 252 252 252 253 254 254 253 252 253 255 257 259 260 260 261 261 261 260 260 261 262 264 265 266 267 268 269 270 270 271 272 273 275 276 275 276 276 276 275 275 275 276 276 276 277 278 279 280 280 281 281 282 282 282 282 283 283 284 285 286 287 287 288 288 289 289 289 289 290 290 290 290 290 290 290 290 290 289 289 289 289 289
258 254 252 251 251 251 250 251 252 252 252 253 254 256 257 258 259 259 259 260 259 260 261 262 264 265 265 266 267 268 269 270 270 271 271 272 272 274 277 278 278 277 277 277 278 278 278 278 278 279 279 280 280 281 281 281 281 282 282 282 284 285 287 288 289 290 290 290 290 290 290 290 291 291 291 291 291 291 291 291 290 290 290 289 289 289
254 250 249 249 249 249 249 250 251 251 252 253 254 255 256 257 257 257 258 258 258 259 260 262 264 265 265 266 267 268 268 269 270 270 271 272 274 276 278 279 279 279 278 278 279 280 280 280 280 280 280 281 281 281 281 281 281 281 281 284 287 289 291 292 292 292 292 292 291 291 292 291 292 292 292 292 292 292 292 292 292 292 291 291 290 290
249 246 245 246 247 248 249 249 250 251 252 253 253 254 254 255 255 255 255 256 256 258 259 261 263 264 265 267 268 269 269 269 269 270 272 274 276 278 279 279 279 279 279 280 281 281 282 282 282 282 282 282 282 281 281 279 279 280 283 288 291 293 294 294 294 293 293 292 292 293 293 293 293 293 294 294 294 294 294 294 294 294 293 293 293 292
244 242 242 244 245 247 248 249 250 251 251 252 253 253 253 253 254 254 254 255 256 257 258 260 261 263 266 267 268 269 269 270 270 271 273 275 277 279 279 280 281 281 281 281 282 283 283 283 283 283 284 283 282 280 278 276 276 281 287 292 294 295 295 294 294 293 293 293 293 293 294 294 295 295 295 295 296 296 296 296 296 295 295 295 294 294
241 240 241 243 245 247 249 250 251 252 253 253 253 254 253 253 253 253 254 255 256 257 258 259 260 261 264 267 268 269 270 270 271 272 273 275 276 277 278 280 282 283 283 283 284 285 284 284 284 284 284 282 280 276 273 273 277 284 290 294 295 295 295 294 293 293 293 293 294 294 294 294 295 295 295 295 296 296 296 296 296 296 295 295 295 295
239 239 241 242 245 247 250 252 253 254 255 255 255 254 254 253 252 253 254 256 257 258 258 259 259 260 262 265 268 270 271 272 271 271 273 274 274 275 277 280 283 284 284 286 287 289 289 287 285 285 284 280 276 273 271 274 280 286 291 292 293 293 293 293 293 294 293 293 293 293 293 293 293 293 294 294 294 295 295 295 295 295 295 294 294 294
238 239 240 242 245 248 250 253 255 256 257 256 256 255 254 253 253 253 254 256 257 257 258 259 260 261 263 266 268 270 272 271 270 270 271 272 273 275 279 282 284 285 287 290 293 296 295 289 286 284 282 278 274 272 273 276 281 285 288 290 291 292 292 293 293 293 293 293 292 292 292 292 292 292 292 293 293 294 294 294 294 294 294 294 294 294
239 240 241 243 246 249 251 254 256 257 258 257 256 256 255 254 253 253 255 255 256 256 257 258 260 262 263 264 266 268 271 270 268 269 271 272 273 275 279 282 284 286 288 291 295 298 297 289 286 286 284 281 279 279 280 282 285 287 289 290 291 291 292 292 292 292 292 292 291 291 291 291 291 292 292 293 293 293 293 293 293 293 293 293 293 293
242 243 244 245 247 249 251 253 255 256 257 257 257 256 255 254 254 254 254 255 255 255 255 257 259 261 263 263 262 264 268 270 270 270 271 271 273 275 278 280 281 283 286 287 289 289 290 284 285 288 289 289 289 289 290 292 293 294 294 295 295 295 295 294 294 293 292 291 291 291 291 291 292 292 293 293 293 293 293 293 293 293 293 293 293 293
243 244 245 246 247 249 251 252 254 255 255 255 255 255 255 255 255 254 254 254 255 255 255 256 258 261 263 263 263 264 266 270 272 272 271 271 273 275 277 278 280 281 284 286 288 287 283 284 287 291 292 293 294 296 298 298 299 299 300 300 301 301 300 299 297 295 294 293 292 292 291 291 291 292 292 292 292 293 293 293 292 292 292 292 292 293
243 243 244 245 246 248 250 251 253 253 253 253 253 254 255 255 256 256 256 256 256 256 256 257 259 261 264 266 268 268 268 270 272 273 272 272 273 274 276 278 280 282 286 289 291 290 289 290 292 295 296 296 297 298 301 302 302 302 303 304 305 305 304 303 302 300 298 296 295 294 293 292 291 291 291 291 291 291 291 291 291 291 291 291 291 292
241 242 242 243 244 245 247 249 251 252 252 252 252 252 253 255 256 257 257 257 258 258 258 259 260 261 263 266 268 270 270 270 272 273 274 274 275 276 278 281 283 285 288 291 292 292 293 293 294 296 298 298 299 300 302 302 302 303 304 306 307 308 308 308 307 306 304 302 300 299 297 295 293 292 291 290 289 289 289 288 288 288 288 288 289 289
239 239 240 241 242 244 245 247 249 250 250 251 251 251 252 253 255 256 257 258 259 259 260 260 261 262 262 263 264 266 266 267 269 273 276 277 278 279 281 282 284 287 288 289 291 292 293 294 294 295 297 299 301 302 302 301 302 304 306 307 309 310 310 310 310 309 308 308 306 304 302 300 297 295 293 292 290 289 288 287 286 285 285 285 285 286
236 237 239 240 241 243 245 246 248 249 249 250 251 251 251 252 253 255 256 258 259 260 261 262 263 263 263 263 263 263 263 265 267 271 275 277 278 279 280 281 283 285 286 287 288 290 292 293 295 296 297 297 299 300 300 300 300 302 304 306 309 310 310 310 310 310 311 311 310 308 306 303 301 299 297 295 293 291 289 288 286 285 284 283 283 283
234 235 237 239 241 242 244 246 247 248 249 250 250 251 251 251 252 253 255 256 258 259 261 263 264 264 264 264 264 264 264 265 267 270 272 275 276 277 278 280 282 283 285 285 287 289 290 291 292 294 295 295 295 296 297 299 300 302 303 305 307 308 309 310 310 311 312 312 311 309 307 305 303 301 299 297 295 293 291 290 288 287 286 285 284 283
232 234 236 238 240 242 244 245 246 248 249 250 250 250 250 251 251 252 252 254 255 257 259 261 262 263 264 264 265 265 266 267 269 271 272 273 275 276 277 279 281 282 284 285 286 287 288 289 289 291 292 294 295 296 297 298 301 303 305 306 307 308 309 310 310 311 311 312 311 310 308 306 304 302 299 298 296 294 292 292 292 292 292 291 290 288
232 233 236 238 241 242 244 245 246 248 249 249 249 249 249 249 250 250 251 253 255 257 258 260 261 262 263 264 265 266 267 269 270 272 273 274 275 276 277 278 279 280 282 283 285 286 287 288 289 291 293 294 296 298 299 300 302 305 307 308 309 309 310 310 310 311 311 311 311 310 308 307 305 303 300 299 297 296 295 294 295 295 295 295 294 293
231 233 236 239 241 243 245 246 247 247 248 248 248 248 248 249 250 252 253 255 256 258 259 261 262 262 263 264 264 265 267 269 271 273 273 273 274 274 275 275 276 277 280 283 284 287 289 289 289 291 292 294 296 298 299 301 303 305 307 307 308 309 311 311 312 313 313 313 312 311 311 310 308 306 304 303 301 299 298 298 298 298 297 297 296 295
231 234 236 239 241 243 245 245 246 245 245 245 245 246 248 250 252 255 257 259 260 260 260 261 262 263 264 263 264 265 267 268 270 271 272 272 272 272 273 273 275 277 280 284 286 288 289 289 289 289 290 293 295 296 298 300 302 304 306 307 309 311 312 313 313 314 313 312 312 312 313 312 311 310 308 306 304 302 301 301 301 301 301 300 299 298
233 235 238 239 242 244 245 245 244 242 241 241 243 245 249 252 255 258 261 264 266 266 266 265 265 266 268 269 268 268 269 270 271 271 272 273 273 273 274 276 278 281 283 285 287 288 287 287 288 288 290 292 293 294 295 298 302 304 305 307 309 309 308 310 311 310 310 310 311 312 312 312 311 310 309 307 306 305 304 304 304 304 304 303 303 302
235 238 239 241 243 244 244 242 240 238 238 239 242 245 250 254 257 259 262 264 267 268 268 268 268 269 271 271 273 273 273 274 275 276 276 277 276 276 278 279 281 283 285 285 285 286 286 286 286 286 288 290 290 292 294 297 301 304 306 307 306 304 302 305 308 309 309 310 311 312 312 311 311 310 309 308 307 307 307 307 307 307 306 305 304 303
238 240 241 242 242 241 239 237 235 235 236 239 242 246 250 255 258 260 260 261 261 261 261 263 265 267 268 270 272 275 276 278 280 282 282 281 281 280 280 281 282 283 284 284 284 283 284 284 285 287 288 288 289 290 292 296 300 304 306 306 306 305 305 306 308 309 309 310 310 311 311 311 310 309 308 307 307 307 308 308 309 308 307 306 304 304
238 240 241 241 240 237 234 232 232 233 235 239 242 246 251 255 258 258 258 256 254 253 255 259 261 262 264 266 269 272 275 276 280 283 284 284 283 283 283 283 283 283 283 284 284 284 284 284 285 286 288 288 290 292 294 298 300 302 304 305 305 305 305 305 306 307 307 308 309 310 311 311 309 307 306 306 307 307 307 308 308 308 307 306 305 305
237 238 239 238 235 232 229 228 229 231 234 238 242 247 252 255 256 256 254 252 251 252 256 259 261 261 262 264 265 267 269 270 273 275 277 279 280 281 282 283 284 284 284 283 284 284 284 285 285 286 287 288 290 293 297 300 300 301 302 304 305 305 304 304 305 306 308 308 309 310 312 310 308 307 307 307 307 307 307 307 307 307 307 307 306 306
235 236 235 234 230 227 225 226 228 232 236 242 248 253 257 257 255 252 249 249 251 254 258 261 262 262 264 265 265 265 266 265 265 267 268 271 274 277 280 282 284 285 285 284 284 284 284 284 284 286 287 289 291 295 298 300 300 301 302 303 303 303 303 305 306 307 308 309 310 311 311 309 308 307 307 307 306 307 307 307 308 308 307 307 307 307
234 233 231 229 227 225 225 227 231 236 243 251 258 262 262 260 255 250 247 249 253 257 260 260 260 260 262 263 265 267 268 267 267 268 269 272 275 278 280 283 285 286 287 287 286 286 285 286 286 287 288 291 294 297 300 301 302 302 301 301 301 302 303 304 305 307 308 309 310 311 310 309 307 306 306 305 305 306 308 308 308 308 308 308 307 307
231 229 228 227 226 225 227 231 236 243 250 258 264 267 265 260 255 251 250 252 256 260 261 259 256 254 254 257 261 264 265 266 268 270 272 275 278 281 283 284 285 287 289 291 293 295 295 296 297 297 297 297 298 299 300 302 303 303 301 301 301 302 302 303 304 306 307 308 308 308 308 307 306 306 305 303 304 305 307 308 308 309 309 308 308 307
226 225 225 226 226 228 231 236 241 248 254 261 265 265 261 255 251 250 251 254 256 258 257 256 254 252 251 253 257 260 263 265 267 270 273 276 279 281 283 284 285 287 291 297 301 303 305 306 307 307 307 305 303 302 300 301 302 302 301 301 301 300 300 301 303 305 307 306 306 305 304 304 304 304 303 303 303 304 305 306 308 308 309 308 308 307
Height
1448 1448 1448 1448 1448 1447 1447 1447 1447 1447 1446 1446 1446 1446 1446 1446 1445 1445 1445 1445 1445 1444 1444 1444 1443 1443 1442 1442 1442 1441 1441 1440 1440 1440 1439 1439 1439 1438 1438 1438 1437 1437 1437 1436 1436 1436 1436 1435 1435 1435 1435 1435 1434 1434 1434 1434 1434 1433 1433 1433 1433 1433 1432 1432 1432 1432 1432 1431 1431 1431 1430 1430 1430 1430 1429 1429 1428 1428 1427 1427 1427 1426 1426 1426 1426 1426
1446 1446 1446 1446 1446 1445 1445 1445 1445 1445 1444 1444 1444 1444 1443 1443 1443 1443 1443 1443 1443 1442 1442 1442 1442 1441 1441 1440 1440 1439 1439 1439 1438 1438 1437 1437 1437 1437 1436 1436 1436 1435 1435 1434 1434 1434 1434 1433 1433 1433 1433 1433 1432 1432 1432 1432 1432 1432 1432 1431 1431 1431 1431 1430 1430 1430 1429 1429 1429 1429 1428 1428 1428 1428 1427 1427 1426 1426 1425 1425 1425 1424 1424 1424 1424 1424
1443 1443 1443 1443 1444 1443 1443 1443 1443 1442 1442 1442 1442 1441 1441 1441 1441 1441 1441 1441 1441 1440 1440 1440 1440 1439 1439 1438 1438 1437 1437 1437 1437 1436 1436 1435 1435 1435 1434 1434 1433 1433 1433 1432 1432 1432 1432 1432 1432 1431 1431 1431 1431 1431 1431 1430 1430 1430 1430 1429 1429 1429 1429 1428 1428 1428 1428 1427 1427 1427 1427 1426 1426 1426 1425 1425 1424 1424 1423 1423 1422 1422 1422 1422 1422 1422
1442 1441 1441 1441 1442 1442 1441 1441 1441 1441 1440 1440 1440 1439 1439 1439 1439 1439 1439 1439 1438 1438 1438 1438 1438 1437 1437 1437 1436 1436 1435 1435 1435 1434 1434 1433 1433 1433 1432 1432 1432 1431 1431 1431 1431 1431 1430 1430 1430 1430 1429 1429 1429 1429 1429 1429 1428 1428 1428 1428 1427 1427 1427 1427 1427 1426 1426 1426 1425 1425 1425 1424 1424 1423 1423 1422 1422 1422 1421 1421 1420 1420 1420 1420 1419 1419
1440 1439 1438 1439 1439 1439 1439 1439 1439 1438 1438 1438 1437 1437 1437 1437 1437 1437 1437 1437 1437 1436 1436 1436 1436 1435 1435 1435 1434 1434 1433 1433 1433 1432 1432 1432 1431 1431 1431 1430 1430 1430 1429 1429 1429 1429 1428 1428 1428 1428 1428 1427 1427 1427 1427 1427 1427 1427 1426 1426 1426 1425 1425 1425 1425 1424 1424 1424 1423 1423 1422 1422 1422 1421 1421 1420 1420 1419 1419 1419 1418 1418 1418 1417 1417 1417
1438 1437 1436 1437 1437 1437 1437 1437 1437 1437 1436 1436 1435 1435 1435 1435 1435 1435 1434 1435 1435 1434 1434 1434 1433 1433 1433 1432 1432 1432 1432 1431 1431 1431 1430 1430 1429 1429 1429 1428 1428 1428 1427 1427 1427 1427 1427 1426 1426 1426 1426 1426 1425 1425 1425 1425 1424 1424 1424 1424 1424 1423 1423 1423 1422 1422 1422 1422 1421 1421 1420 1420 1419 1419 1418 1418 1418 1417 1417 1417 1416 1416 1416 1416 1415 1415
1436 1435 1434 1435 1435 1435 1435 1435 1434 1434 1434 1434 1433 1433 1433 1432 1432 1432 1432 1432 1432 1432 1432 1432 1432 1431 1431 1431 1430 1430 1430 1429 1429 1429 1428 1428 1427 1427 1427 1427 1426 1426 1426 1425 1425 1425 1425 1424 1424 1424 1423 1423 1423 1423 1422 1422 1422 1422 1422 1422 1421 1421 1421 1421 1420 1420 1420 1419 1419 1418 1418 1417 1417 1417 1417 1416 1416 1415 1415 1415 1414 1414 1414 1413 1413 1413
1434 1432 1432 1433 1433 1433 1433 1432 1432 1432 1432 1432 1432 1431 1431 1430 1430 1430 1430 1430 1430 1430 1430 1430 1429 1429 1429 1429 1428 1428 1428 1427 1427 1427 1427 1426 1426 1425 1425 1425 1424 1424 1424 1423 1423 1423 1423 1422 1422 1422 1422 1421 1421 1421 1420 1420 1420 1419 1419 1419 1419 1419 1418 1418 1418 1417 1417 1417 1417 1416 1416 1416 1415 1415 1414 1414 1413 1413 1413 1412 1412 1412 1412 1411 1411 1411
1432 1431 1430 1431 1431 1431 1431 1430 1430 1430 1430 1430 1430 1429 1429 1428 1428 1428 1428 1428 1428 1428 1428 1428 1427 1427 1427 1427 1427 1426 1426 1426 1425 1425 1425 1424 1424 1423 1423 1423 1422 1422 1422 1422 1421 1421 1421 1421 1420 1420 1420 1419 1419 1418 1418 1418 1418 1417 1417 1417 1417 1417 1416 1416 1416 1415 1415 1415 1414 1414 1414 1413 1413 1412 1412 1412 1411 1411 1411 1410 1410 1410 1409 1409 1409 1409
1430 1429 1429 1429 1429 1429 1429 1428 1428 1428 1429 1428 1428 1428 1427 1427 1427 1426 1426 1426 1426 1426 1426 1426 1426 1425 1425 1425 1425 1425 1424 1424 1423 1423 1423 1422 1422 1422 1421 1421 1421 1420 1420 1420 1419 1419 1419 1418 1418 1418 1418 1417 1417 1417 1416 1416 1416 1416 1415 1415 1415 1415 1414 1414 1414 1413 1413 1413 1412 1412 1412 1411 1411 1410 1410 1409 1409 1409 1408 1408 1407 1407 1407 1407 1407 1407
1428 1427 1427 1427 1427 1427 1427 1427 1426 1426 1427 1427 1426 1426 1426 1426 1425 1425 1425 1424 1423 1423 1424 1424 1424 1424 1423 1423 1423 1423 1422 1422 1422 1421 1421 1421 1420 1420 1419 1419 1419 1418 1418 1418 1417 1417 1417 1417 1417 1416 1416 1416 1415 1415 1415 1414 1414 1414 1414 1413 1413 1413 1412 1412 1412 1411 1411 1411 1410 1410 1409 1409 1408 1408 1407 1407 1407 1406 1406 1406 1405 1405 1405 1405 1404 1404
1426 1426 1426 1425 1425 1425 1425 1425 1424 1424 1425 1425 1424 1424 1424 1424 1424 1424 1424 1423 1422 1421 1421 1422 1422 1422 1422 1421 1421 1421 1421 1421 1420 1420 1419 1419 1418 1418 1417 1417 1417 1417 1416 1416 1416 1415 1415 1415 1415 1414 1414 1414 1413 1413 1413 1412 1412 1412 1412 1412 1411 1411 1410 1410 1410 1409 1409 1408 1408 1408 1407 1407 1406 1406 1405 1405 1404 1404 1404 1403 1403 1403 1402 1402 1402 1402
1424 1424 1424 1423 1423 1423 1423 1422 1422 1422 1422 1423 1423 1422 1422 1422 1422 1422 1422 1422 1421 1420 1419 1420 1420 1420 1420 1419 1419 1419 1419 1419 1418 1418 1417 1417 1417 1416 1416 1416 1415 1415 1415 1414 1414 1414 1413 1413 1413 1412 1412 1412 1412 1411 1411 1411 1411 1410 1410 1410 1409 1409 1408 1408 1408 1407 1407 1407 1406 1406 1405 1405 1404 1404 1403 1403 1402 1402 1402 1401 1401 1401 1400 1400 1400 1400
1422 1422 1422 1422 1421 1421 1421 1421 1421 1421 1421 1421 1421 1421 1421 1420 1421 1421 1421 1420 1419 1419 1418 1418 1418 1417 1417 1417 1417 1417 1417 1417 1417 1417 1416 1415 1415 1414 1414 1414 1413 1413 1413 1412 1412 1412 1412 1412 1411 1411 1410 1410 1410 1410 1409 1409 1409 1408 1408 1408 1407 1407 1407 1407 1406 1406 1405 1405 1404 1404 1403 1403 1402 1402 1401 1401 1400 1400 1400 1399 1399 1398 1398 1398 1397 1397
1420 1420 1420 1419 1419 1419 1419 1419 1419 1419 1419 1419 1419 1419 1419 1419 1419 1419 1419 1418 1418 1417 1417 1417 1417 1416 1415 1415 1416 1416 1416 1416 1416 1415 1414 1414 1413 1413 1413 1412 1412 1412 1411 1411 1411 1410 1410 1410 1410 1409 1409 1408 1408 1408 1408 1407 1407 1407 1407 1406 1406 1405 1405 1405 1404 1404 1403 1403 1402 1402 1401 1401 1400 1400 1399 1399 1398 1398 1397 1397 1397 1396 1396 1396 1395 1395
1418 1418 1418 1418 1418 1417 1417 1417 1418 1418 1417 1417 1418 1418 1418 1417 1417 1417 1417 1417 1416 1416 1416 1416 1415 1414 1413 1413 1413 1414 1415 1414 1414 1414 1413 1412 1412 1411 1412 1412 1411 1410 1410 1410 1409 1409 1409 1408 1408 1408 1407 1407 1407 1407 1406 1406 1406 1405 1405 1404 1404 1403 1403 1402 1402 1402 1401 1401 1400 1400 1399 1399 1398 1397 1397 1397 1396 1396 1395 1395 1394 1394 1394 1393 1393 1393
1415 1416 1416 1416 1416 1415 1415 1415 1416 1416 1416 1416 1416 1416 1416 1416 1415 1415 1415 1415 1415 1414 1414 1414 1414 1414 1412 1411 1411 1412 1413 1413 1413 1412 1412 1411 1410 1410 1410 1410 1410 1409 1408 1408 1408 1408 1407 1407 1407 1406 1406 1405 1405 1405 1404 1404 1404 1403 1403 1402 1402 1402 1401 1401 1400 1400 1399 1399 1398 1397 1397 1397 1396 1396 1395 1394 1394 1394 1393 1393 1392 1392 1392 1391 1391 1390
1413 1413 1413 1414 1414 1413 1413 1413 1414 1414 1414 1414 1414 1414 1414 1414 1414 1414 1413 1413 1413 1413 1413 1412 1412 1412 1412 1411 1409 1409 1411 1412 1411 1411 1410 1410 1409 1408 1408 1409 1408 1407 1407 1407 1406 1406 1406 1405 1405 1404 1404 1403 1403 1403 1402 1402 1402 1401 1401 1400 1400 1399 1399 1399 1398 1398 1397 1397 1396 1396 1395 1395 1394 1393 1393 1392 1392 1392 1391 1391 1390 1390 1389 1389 1389 1388
1410 1411 1411 1411 1411 1411 1411 1412 1412 1412 1412 1412 1412 1412 1412 1412 1412 1412 1412 1412 1412 1411 1411 1411 1410 1410 1410 1411 1409 1407 1409 1410 1410 1409 1408 1408 1407 1407 1407 1407 1407 1406 1405 1405 1405 1404 1404 1403 1403 1402 1402 1402 1402 1401 1401 1400 1400 1399 1399 1398 1398 1397 1397 1397 1396 1396 1395 1395 1394 1394 1393 1393 1392 1392 1391 1391 1390 1390 1389 1389 1388 1388 1387 1387 1387 1386
1408 1408 1408 1409 1409 1410 1409 1410 1410 1410 1411 1411 1411 1411 1410 1410 1410 1410 1410 1410 1410 1410 1410 1409 1409 1408 1408 1408 1407 1407 1407 1408 1408 1407 1407 1406 1406 1405 1405 1405 1405 1404 1404 1403 1403 1403 1402 1402 1401 1401 1400 1400 1400 1399 1399 1398 1398 1397 1397 1397 1396 1396 1395 1395 1394 1394 1393 1393 1392 1392 1391 1391 1390 1390 1389 1389 1388 1388 1387 1387 1387 1386 1386 1385 1385 1384
1406 1406 1406 1407 1408 1408 1407 1407 1408 1408 1409 1409 1409 1409 1408 1408 1408 1408 1408 1408 1408 1408 1408 1408 1407 1407 1406 1406 1406 1406 1406 1407 1407 1406 1405 1404 1404 1404 1403 1404 1403 1403 1402 1402 1402 1401 1401 1400 1400 1399 1399 1398 1398 1398 1397 1397 1396 1396 1395 1395 1394 1394 1393 1393 1392 1392 1392 1391 1391 1390 1390 1389 1389 1388 1388 1387 1387 1386 1386 1385 1385 1384 1384 1383 1383 1382
1404 1403 1404 1405 1405 1406 1406 1406 1406 1406 1407 1407 1407 1407 1407 1407 1407 1407 1406 1407 1407 1407 1406 1406 1406 1405 1405 1405 1404 1404 1405 1405 1405 1404 1403 1403 1402 1402 1402 1402 1402 1401 1401 1400 1400 1400 1400 1399 1398 1397 1397 1397 1397 1396 1396 1395 1395 1394 1394 1393 1393 1392 1392 1391 1391 1390 1390 1389 1389 1388 1388 1387 1387 1387 1386 1386 1385 1385 1384 1383 1383 1382 1382 1381 1381 1380
1401 1402 1402 1402 1403 1403 1404 1404 1404 1405 1405 1405 1405 1405 1405 1405 1405 1405 1405 1405 1405 1405 1404 1404 1404 1404 1404 1403 1403 1403 1403 1403 1403 1402 1402 1401 1401 1400 1399 1400 1400 1400 1399 1399 1398 1398 1398 1397 1397 1396 1396 1395 1395 1394 1394 1394 1393 1393 1392 1392 1391 1391 1390 1390 1389 1389 1388 1387 1387 1387 1386 1386 1385 1385 1384 1384 1383 1383 1382 1382 1381 1381 1380 1380 1379 1378
1399 1399 1400 1400 1401 1402 1402 1402 1402 1403 1403 1403 1403 1403 1403 1403 1403 1403 1403 1403 1403 1403 1403 1403 1402 1402 1402 1402 1401 1401 1401 1401 1401 1401 1400 1400 1399 1398 1398 1398 1398 1398 1397 1397 1397 1397 1397 1396 1395 1395 1394 1393 1393 1393 1392 1392 1392 1391 1391 1390 1390 1389 1389 1388 1387 1387 1386 1386 1385 1385 1384 1384 1383 1383 1382 1382 1381 1381 1380 1380 1379 1379 1378 1377 1377 1377
1397 1397 1398 1398 1399 1400 1400 1400 1401 1401 1401 1402 1402 1402 1402 1402 1402 1402 1402 1402 1402 1402 1402 1402 1401 1401 1400 1400 1399 1399 1399 1400 1400 1399 1399 1398 1397 1397 1396 1396 1397 1396 1396 1395 1395 1395 1395 1394 1394 1393 1392 1392 1392 1391 1391 1391 1390 1390 1389 1389 1388 1387 1387 1386 1386 1385 1384 1384 1383 1383 1382 1382 1381 1381 1380 1380 1379 1379 1378 1378 1377 1377 1376 1376 1375 1374
1395 1396 1396 1397 1397 1398 1398 1399 1399 1399 1399 1400 1400 1400 1400 1400 1400 1400 1400 1400 1400 1400 1400 1400 1400 1399 1398 1398 1398 1397 1397 1398 1398 1397 1397 1396 1396 1395 1395 1394 1395 1394 1394 1394 1394 1393 1393 1393 1392 1392 1391 1390 1390 1390 1389 1389 1389 1388 1388 1387 1387 1386 1385 1385 1384 1383 1382 1382 1381 1381 1380 1380 1379 1379 1378 1377 1377 1377 1376 1376 1375 1374 1374 1373 1373 1372
1393 1394 1394 1395 1395 1396 1396 1397 1397 1397 1397 1398 1398 1398 1398 1398 1398 1398 1398 1398 1398 1398 1399 1398 1398 1397 1397 1396 1396 1396 1396 1396 1396 1396 1396 1395 1394 1393 1393 1392 1393 1393 1392 1392 1392 1392 1392 1391 1390 1390 1389 1389 1388 1388 1388 1387 1387 1387 1386 1386 1385 1385 1384 1383 1382 1382 1381 1380 1380 1379 1378 1378 1377 1377 1376 1376 1375 1374 1374 1373 1373 1372 1372 1371 1371 1370
1391 1392 1392 1393 1393 1394 1394 1395 1395 1396 1396 1396 1396 1397 1397 1397 1397 1397 1396 1396 1397 1397 1397 1397 1396 1396 1395 1395 1395 1394 1394 1394 1394 1394 1394 1393 1393 1392 1391 1391 1391 1391 1391 1390 1390 1390 1389 1389 1389 1388 1388 1387 1387 1387 1386 1386 1386 1386 1385 1384 1384 1383 1382 1382 1381 1380 1380 1379 1378 1377 1377 1376 1376 1375 1374 1374 1373 1372 1372 1372 1371 1370 1370 1369 1368 1368
1389 1390 1390 1391 1391 1392 1392 1393 1393 1393 1394 1394 1394 1395 1395 1395 1395 1395 1394 1394 1395 1395 1395 1395 1395 1394 1394 1393 1393 1393 1393 1392 1392 1392 1392 1392 1391 1390 1389 1389 1390 1389 1389 1388 1388 1388 1387 1387 1387 1387 1386 1386 1385 1385 1385 1385 1385 1384 1384 1383 1382 1382 1381 1380 1380 1379 1378 1377 1377 1376 1375 1374 1374 1373 1372 1372 1371 1371 1370 1370 1369 1368 1367 1367 1366 1366
1387 1387 1388 1388 1389 1390 1390 1391 1391 1392 1392 1392 1392 1392 1393 1393 1393 1393 1392 1393 1393 1394 1393 1393 1393 1393 1392 1392 1392 1392 1391 1391 1391 1391 1391 1391 1390 1388 1388 1388 1388 1388 1387 1387 1387 1386 1385 1385 1385 1385 1385 1384 1384 1384 1384 1383 1383 1383 1382 1382 1381 1381 1380 1379 1378 1377 1377 1376 1375 1374 1373 1373 1372 1372 1371 1370 1370 1369 1368 1368 1367 1366 1365 1365 1364 1363
1385 1386 1386 1386 1387 1387 1388 1389 1389 1389 1390 1390 1390 1391 1391 1391 1391 1391 1391 1391 1392 1392 1392 1392 1392 1391 1391 1391 1391 1390 1389 1389 1389 1390 1390 1389 1388 1387 1387 1387 1387 1386 1386 1386 1386 1385 1384 1383 1382 1382 1383 1382 1382 1382 1382 1382 1381 1381 1381 1380 1380 1379 1378 1378 1377 1376 1375 1374 1374 1373 1372 1371 1370 1370 1369 1368 1368 1367 1367 1366 1365 1364 1363 1362 1362 1361
1383 1383 1384 1384 1385 1386 1386 1387 1387 1387 1388 1388 1388 1389 1389 1389 1390 1390 1390 1390 1390 1390 1390 1390 1390 1390 1390 1390 1389 1389 1388 1388 1388 1388 1388 1388 1387 1386 1386 1385 1385 1385 1385 1385 1385 1384 1383 1382 1381 1381 1381 1380 1380 1380 1379 1379 1379 1378 1378 1378 1378 1377 1377 1376 1376 1375 1374 1373 1372 1371 1370 1369 1369 1368 1367 1367 1366 1365 1364 1364 1363 1362 1361 1360 1360 1359
1382 1382 1382 1383 1383 1384 1384 1384 1385 1386 1386 1386 1387 1387 1387 1387 1388 1388 1388 1388 1388 1389 1389 1389 1389 1388 1388 1388 1388 1387 1387 1387 1386 1386 1387 1386 1385 1385 1384 1384 1384 1384 1383 1383 1383 1382 1382 1380 1379 1379 1378 1378 1378 1377 1377 1377 1376 1376 1376 1376 1375 1375 1375 1374 1374 1373 1372 1372 1371 1370 1369 1368 1367 1366 1366 1365 1364 1363 1362 1362 1361 1360 1359 1358 1357 1357
1380 1380 1380 1381 1381 1382 1382 1382 1383 1383 1384 1384 1385 1385 1386 1386 1386 1386 1386 1387 1387 1387 1387 1387 1387 1387 1387 1386 1386 1386 1386 1385 1385 1385 1385 1385 1384 1383 1383 1382 1382 1382 1382 1381 1381 1380 1379 1379 1378 1377 1376 1376 1376 1376 1375 1374 1374 1373 1373 1373 1373 1372 1372 1372 1372 1371 1370 1370 1369 1368 1367 1366 1365 1365 1364 1363 1362 1362 1361 1360 1359 1358 1357 1357 1356 1355
1378 1378 1378 1379 1379 1379 1380 1380 1381 1382 1382 1382 1383 1383 1384 1384 1384 1384 1385 1385 1385 1385 1386 1386 1386 1386 1385 1385 1385 1384 1384 1384 1384 1383 1383 1383 1382 1382 1381 1381 1381 1381 1380 1380 1379 1379 1378 1377 1377 1376 1375 1374 1373 1373 1373 1373 1372 1371 1371 1371 1371 1370 1370 1369 1369 1368 1368 1367 1366 1366 1365 1364 1363 1362 1362 1361 1361 1360 1359 1358 1358 1357 1356 1355 1354 1353
1376 1376 1376 1377 1377 1377 1378 1378 1379 1380 1380 1381 1381 1382 1382 1382 1383 1383 1383 1383 1383 1383 1384 1384 1384 1384 1384 1384 1383 1383 1383 1383 1382 1382 1382 1381 1381 1380 1380 1379 1379 1379 1379 1378 1378 1377 1377 1376 1375 1374 1374 1372 1372 1371 1372 1371 1370 1370 1369 1369 1368 1368 1367 1367 1366 1366 1365 1364 1364 1363 1362 1361 1361 1360 1359 1359 1358 1358 1357 1357 1356 1355 1354 1354 1352 1352
1374 1374 1374 1375 1375 1376 1376 1377 1377 1378 1378 1379 1379 1380 1381 1381 1381 1381 1381 1381 1382 1382 1382 1382 1382 1382 1382 1382 1382 1382 1382 1382 1381 1381 1380 1380 1379 1379 1378 1378 1378 1378 1377 1377 1377 1376 1375 1374 1373 1372 1372 1371 1371 1370 1369 1369 1369 1368 1367 1367 1367 1366 1366 1365 1364 1363 1363 1362 1361 1360 1359 1359 1358 1357 1357 1356 1356 1355 1355 1354 1354 1353 1352 1352 1351 1350
1372 1372 1372 1372 1373 1374 1374 1375 1375 1376 1377 1377 1378 1378 1379 1379 1380 1380 1380 1380 1380 1380 1380 1380 1380 1380 1380 1380 1380 1380 1380 1380 1380 1380 1379 1379 1378 1378 1377 1377 1376 1376 1376 1376 1375 1375 1374 1373 1372 1371 1370 1370 1369 1369 1368 1367 1367 1366 1366 1366 1365 1365 1364 1363 1362 1361 1361 1360 1359 1358 1357 1357 1356 1355 1354 1353 1353 1352 1352 1351 1351 1350 1350 1349 1348 1347
1369 1369 1370 1370 1371 1372 1372 1373 1373 1374 1375 1376 1377 1377 1377 1378 1378 1378 1378 1378 1378 1378 1379 1379 1379 1379 1379 1378 1378 1378 1378 1378 1378 1378 1378 1377 1377 1376 1376 1375 1375 1375 1374 1374 1374 1373 1373 1372 1371 1370 1369 1368 1367 1367 1366 1366 1365 1364 1364 1363 1363 1363 1362 1362 1361 1360 1359 1358 1357 1356 1355 1354 1354 1353 1352 1351 1351 1350 1349 1348 1348 1347 1347 1346 1345 1344
1367 1367 1368 1369 1369 1370 1371 1371 1372 1373 1374 1374 1375 1376 1376 1376 1376 1377 1377 1377 1377 1377 1377 1377 1377 1377 1377 1377 1377 1377 1377 1377 1377 1377 1376 1376 1375 1375 1374 1374 1373 1373 1373 1372 1372 1372 1371 1370 1369 1368 1367 1367 1366 1365 1364 1363 1363 1363 1362 1361 1360 1360 1360 1360 1359 1358 1357 1356 1355 1354 1353 1352 1352 1351 1350 1349 1348 1347 1347 1346 1345 1345 1344 1343 1342 1341
1365 1366 1366 1367 1368 1368 1369 1370 1371 1372 1372 1373 1374 1374 1374 1374 1375 1375 1375 1375 1375 1375 1375 1375 1375 1375 1375 1375 1375 1375 1375 1375 1375 1375 1374 1374 1374 1373 1373 1373 1372 1372 1372 1371 1371 1370 1370 1369 1368 1367 1366 1365 1364 1363 1362 1362 1361 1361 1361 1360 1358 1358 1357 1357 1356 1355 1355 1354 1353 1352 1351 1350 1349 1348 1347 1347 1346 1345 1344 1344 1343 1342 1342 1341 1340 1339
1363 1364 1365 1366 1366 1367 1368 1369 1369 1370 1371 1372 1372 1372 1372 1372 1373 1373 1373 1373 1373 1373 1373 1374 1374 1374 1373 1373 1373 1373 1373 1373 1373 1373 1373 1372 1372 1372 1372 1371 1371 1371 1370 1370 1369 1369 1368 1368 1367 1366 1365 1364 1363 1362 1361 1360 1360 1360 1359 1358 1357 1356 1355 1354 1354 1354 1352 1352 1351 1350 1349 1348 1347 1346 1345 1344 1343 1342 1342 1341 1341 1340 1339 1338 1337 1337
1361 1362 1363 1364 1365 1366 1366 1367 1368 1369 1369 1370 1370 1370 1371 1371 1371 1372 1372 1372 1372 1372 1372 1372 1372 1372 1372 1372 1372 1372 1372 1372 1372 1372 1371 1371 1371 1371 1370 1370 1369 1369 1369 1368 1368 1367 1367 1366 1366 1365 1364 1363 1362 1361 1359 1358 1358 1358 1357 1357 1356 1355 1353 1352 1352 1352 1351 1350 1349 1348 1347 1346 1345 1344 1342 1342 1341 1340 1339 1338 1338 1337 1337 1336 1335 1334
1360 1361 1362 1363 1364 1364 1365 1366 1367 1367 1368 1368 1368 1369 1369 1370 1370 1370 1370 1370 1370 1371 1371 1371 1371 1371 1371 1370 1370 1370 1370 1370 1370 1370 1370 1369 1369 1369 1369 1368 1368 1367 1367 1367 1367 1366 1365 1364 1364 1363 1362 1362 1361 1359 1358 1357 1356 1356 1356 1355 1355 1354 1352 1351 1351 1350 1349 1348 1347 1347 1345 1344 1343 1342 1340 1339 1338 1337 1337 1336 1336 1335 1334 1333 1332 1332
1359 1360 1361 1362 1362 1363 1364 1364 1365 1366 1366 1367 1367 1367 1368 1368 1369 1369 1369 1369 1370 1370 1370 1370 1370 1370 1369 1369 1369 1369 1369 1369 1368 1368 1368 1368 1367 1367 1367 1367 1367 1366 1366 1365 1365 1364 1364 1363 1362 1362 1361 1360 1359 1358 1357 1356 1355 1354 1354 1354 1353 1352 1351 1350 1349 1348 1347 1346 1346 1345 1344 1342 1341 1340 1338 1337 1336 1336 1335 1334 1333 1333 1332 1331 1330 1329
1358 1358 1359 1360 1361 1362 1362 1363 1363 1364 1365 1365 1366 1366 1367 1367 1367 1368 1368 1368 1368 1369 1369 1369 1369 1368 1368 1368 1368 1368 1368 1368 1367 1367 1367 1366 1366 1366 1366 1365 1365 1365 1364 1364 1363 1362 1362 1362 1361 1360 1359 1358 1357 1356 1356 1355 1354 1353 1352 1352 1352 1351 1349 1349 1348 1347 1346 1345 1344 1343 1342 1341 1340 1338 1336 1335 1334 1333 1333 1332 1332 1331 1330 1329 1328 1327
1356 1357 1357 1358 1359 1360 1361 1362 1362 1363 1364 1364 1365 1365 1366 1366 1366 1367 1367 1367 1367 1367 1367 1367 1367 1367 1367 1367 1367 1367 1367 1367 1367 1367 1366 1365 1365 1364 1364 1363 1363 1363 1362 1362 1361 1361 1360 1360 1359 1358 1358 1357 1355 1354 1354 1354 1353 1352 1351 1351 1350 1349 1348 1347 1347 1346 1345 1344 1343 1342 1341 1339 1338 1336 1335 1333 1332 1331 1331 1330 1330 1329 1328 1327 1326 1325
1354 1355 1356 1357 1357 1359 1359 1360 1361 1362 1362 1363 1363 1364 1364 1364 1365 1365 1365 1366 1366 1366 1366 1366 1366 1366 1366 1366 1366 1366 1366 1366 1366 1365 1365 1364 1364 1363 1362 1362 1362 1361 1361 1360 1360 1359 1358 1358 1357 1357 1356 1356 1354 1353 1352 1352 1352 1351 1350 1349 1348 1347 1347 1346 1345 1344 1343 1342 1341 1340 1339 1338 1337 1335 1333 1332 1330 1329 1328 1328 1327 1327 1326 1325 1324 1323
1353 1354 1355 1355 1356 1357 1358 1359 1359 1360 1361 1362 1362 1362 1363 1363 1363 1364 1364 1364 1365 1365 1365 1365 1365 1365 1365 1365 1365 1365 1364 1364 1364 1364 1363 1363 1362 1362 1361 1361 1360 1359 1359 1358 1358 1357 1357 1356 1356 1355 1355 1354 1353 1352 1351 1350 1350 1349 1349 1348 1347 1346 1345 1344 1343 1342 1342 1341 1339 1338 1337 1336 1335 1333 1332 1330 1328 1327 1326 1325 1325 1324 1324 1323 1322 1321
1352 1352 1353 1354 1355 1356 1357 1357 1358 1359 1360 1360 1361 1361 1361 1362 1362 1362 1362 1363 1363 1363 1364 1364 1364 1364 1364 1364 1364 1363 1363 1363 1362 1362 1362 1361 1361 1360 1360 1359 1358 1358 1357 1357 1356 1355 1355 1354 1353 1353 1353 1353 1352 1352 1350 1349 1348 1348 1347 1346 1346 1345 1344 1343 1342 1341 1340 1339 1338 1337 1336 1334 1333 1332 1331 1329 1327 1325 1323 1322 1322 1322 1322 1321 1320 1319
1351 1351 1352 1352 1353 1354 1355 1356 1357 1357 1358 1359 1359 1360 1360 1360 1361 1361 1362 1362 1362 1362 1362 1363 1363 1363 1363 1363 1362 1362 1362 1362 1361 1361 1360 1360 1359 1359 1358 1357 1357 1357 1356 1356 1355 1354 1353 1352 1352 1351 1351 1351 1350 1350 1350 1349 1347 1347 1346 1345 1344 1344 1343 1342 1340 1339 1339 1337 1336 1335 1334 1332 1331 1330 1329 1328 1326 1323 1322 1320 1319 1319 1319 1319 1318 1317